Hlavní strana
METAR-TAF:

METAR-TAF

Letiště :

MidCoast Regional Airport / Wright Army Airfield

Hinesville, Georgie, Spojené státy americké

zeměpisná šířka: 31-53N, zeměpisná délka: 081-34W, výška: 14 m

Aktuální stav počasí

Zpráva byla vytvořena před 30 minutami, v 17:56 UTC
Západní vítr 9 kt
Teplota 12°C
Vlhkost vzduchu 38%
Tlak 1020 hPa
Viditelnost: 16.1 km
Jasno

METAR: KLHW 271756Z AUTO 28009KT 10SM CLR 12/M02 A3012 RMK AO2 SLP203 T01151016 10118 20043 58006 $

Čas: 13:26 (18:26 UTC)


TAF: chybějící

Stav a předpovědi počasí z více než 4 000 letišť (zprávy METAR a TAF).

Červené a žluté tečky na mapě představují dostupné meteorologické stanice.

Když kurzor umístíte na tečku, zobrazí se název stanice.

Pak kliknutím zobrazíte stav a předpověď počasí.

Chcete-li změnit mapu, kliknutím na zelené tlačítko se znaménkem +mapu přiblížíte, kliknutím na zelené tlačítko se znaménkem – mapu oddálíte a kliknutím na zelené šipky přejdete na sousední mapy.


METAR-TAF: